TimeEDT,TemperatureF,Dew PointF,Humidity,Sea Level PressureIn,VisibilityMPH,Wind Direction,Wind SpeedMPH,Gust SpeedMPH,PrecipitationIn,Events,Conditions,WindDirDegrees,DateUTC
12:15 AM,32.0,24.8,75,30.17,10.0,Calm,Calm,-,N/A,,Clear,0,2013-04-03 04:15:00
12:35 AM,32.0,24.8,75,30.17,10.0,SSW,3.5,-,N/A,,Clear,210,2013-04-03 04:35:00
12:55 AM,33.8,26.6,75,30.18,10.0,Calm,Calm,-,N/A,,Clear,0,2013-04-03 04:55:00
1:15 AM,32.0,24.8,75,30.18,10.0,Calm,Calm,-,N/A,,Clear,0,2013-04-03 05:15:00
1:35 AM,30.2,23.0,75,30.19,10.0,Calm,Calm,-,N/A,,Clear,0,2013-04-03 05:35:00
1:55 AM,30.2,23.0,75,30.20,10.0,Calm,Calm,-,N/A,,Clear,0,2013-04-03 05:55:00
2:15 AM,28.4,21.2,74,30.20,10.0,Calm,Calm,-,N/A,,Clear,0,2013-04-03 06:15:00
2:35 AM,30.2,21.2,69,30.20,10.0,Calm,Calm,-,N/A,,Clear,0,2013-04-03 06:35:00
2:55 AM,28.4,21.2,74,30.19,10.0,Calm,Calm,-,N/A,,Clear,0,2013-04-03 06:55:00
3:15 AM,28.4,21.2,74,30.19,10.0,Calm,Calm,-,N/A,,Clear,0,2013-04-03 07:15:00
3:35 AM,26.6,21.2,80,30.20,10.0,Calm,Calm,-,N/A,,Clear,0,2013-04-03 07:35:00
3:55 AM,26.6,21.2,80,30.20,10.0,Calm,Calm,-,N/A,,Clear,0,2013-04-03 07:55:00
4:15 AM,26.6,21.2,80,30.20,10.0,Calm,Calm,-,N/A,,Clear,0,2013-04-03 08:15:00
4:35 AM,26.6,21.2,80,30.20,10.0,Calm,Calm,-,N/A,,Clear,0,2013-04-03 08:35:00
4:55 AM,24.8,21.2,86,30.22,10.0,Calm,Calm,-,N/A,,Clear,0,2013-04-03 08:55:00
5:15 AM,26.6,21.2,80,30.22,10.0,Calm,Calm,-,N/A,,Clear,0,2013-04-03 09:15:00
5:35 AM,24.8,19.4,80,30.21,10.0,Calm,Calm,-,N/A,,Clear,0,2013-04-03 09:35:00
5:55 AM,26.6,19.4,74,30.21,10.0,Calm,Calm,-,N/A,,Clear,0,2013-04-03 09:55:00
6:15 AM,24.8,19.4,80,30.21,10.0,Calm,Calm,-,N/A,,Clear,0,2013-04-03 10:15:00
6:35 AM,24.8,19.4,80,30.21,10.0,Calm,Calm,-,N/A,,Clear,0,2013-04-03 10:35:00
6:55 AM,24.8,19.4,80,30.23,10.0,Calm,Calm,-,N/A,,Clear,0,2013-04-03 10:55:00
7:15 AM,24.8,19.4,80,30.24,10.0,Calm,Calm,-,N/A,,Clear,0,2013-04-03 11:15:00
7:35 AM,24.8,19.4,80,30.25,10.0,Calm,Calm,-,N/A,,Clear,0,2013-04-03 11:35:00
7:55 AM,26.6,21.2,80,30.26,10.0,Calm,Calm,-,N/A,,Clear,0,2013-04-03 11:55:00
8:15 AM,30.2,21.2,69,30.27,10.0,Calm,Calm,-,N/A,,Clear,0,2013-04-03 12:15:00
8:35 AM,30.2,21.2,69,30.28,10.0,Calm,Calm,-,N/A,,Clear,0,2013-04-03 12:35:00
8:55 AM,32.0,21.2,64,30.28,10.0,Calm,Calm,-,N/A,,Clear,0,2013-04-03 12:55:00
9:15 AM,35.6,21.2,56,30.28,10.0,Calm,Calm,-,N/A,,Clear,0,2013-04-03 13:15:00
9:35 AM,35.6,21.2,56,30.28,10.0,Calm,Calm,-,N/A,,Clear,0,2013-04-03 13:35:00
9:55 AM,39.2,21.2,49,30.28,10.0,Calm,Calm,-,N/A,,Clear,0,2013-04-03 13:55:00
10:15 AM,41.0,15.8,36,30.29,10.0,Calm,Calm,-,N/A,,Clear,0,2013-04-03 14:15:00
10:35 AM,42.8,17.6,36,30.29,10.0,Calm,Calm,-,N/A,,Clear,0,2013-04-03 14:35:00
10:55 AM,44.6,19.4,37,30.28,6.0,SW,3.5,-,N/A,,Haze,220,2013-04-03 14:55:00
11:15 AM,42.8,17.6,36,30.27,10.0,ESE,3.5,-,N/A,,Clear,120,2013-04-03 15:15:00
11:35 AM,44.6,17.6,34,30.26,10.0,SSE,4.6,-,N/A,,Clear,150,2013-04-03 15:35:00
11:55 AM,46.4,17.6,32,30.25,10.0,Variable,3.5,-,N/A,,Clear,0,2013-04-03 15:55:00
12:15 PM,46.4,19.4,34,30.25,10.0,Variable,3.5,-,N/A,,Clear,0,2013-04-03 16:15:00
12:35 PM,46.4,17.6,32,30.25,10.0,Variable,4.6,-,N/A,,Clear,0,2013-04-03 16:35:00
12:55 PM,46.4,17.6,32,30.25,10.0,Variable,4.6,-,N/A,,Clear,0,2013-04-03 16:55:00
1:15 PM,48.2,19.4,32,30.24,10.0,Variable,3.5,-,N/A,,Clear,0,2013-04-03 17:15:00
1:35 PM,48.2,19.4,32,30.24,10.0,Calm,Calm,-,N/A,,Clear,0,2013-04-03 17:35:00
1:55 PM,50.0,19.4,30,30.23,10.0,ESE,4.6,-,N/A,,Clear,110,2013-04-03 17:55:00
2:15 PM,51.8,21.2,30,30.22,10.0,WSW,9.2,-,N/A,,Clear,240,2013-04-03 18:15:00
2:35 PM,51.8,21.2,30,30.22,10.0,West,10.4,-,N/A,,Clear,270,2013-04-03 18:35:00
2:55 PM,51.8,19.4,28,30.22,10.0,West,10.4,-,N/A,,Clear,280,2013-04-03 18:55:00
3:15 PM,51.8,19.4,28,30.23,10.0,West,11.5,-,N/A,,Clear,280,2013-04-03 19:15:00
3:35 PM,53.6,19.4,26,30.24,10.0,WNW,8.1,-,N/A,,Clear,300,2013-04-03 19:35:00
3:55 PM,51.8,17.6,26,30.23,10.0,West,9.2,-,N/A,,Clear,280,2013-04-03 19:55:00
4:15 PM,51.8,19.4,28,30.23,10.0,Variable,6.9,-,N/A,,Clear,0,2013-04-03 20:15:00
4:35 PM,53.6,19.4,26,30.23,10.0,Variable,4.6,-,N/A,,Clear,0,2013-04-03 20:35:00
4:55 PM,51.8,15.8,24,30.23,10.0,North,6.9,-,N/A,,Clear,360,2013-04-03 20:55:00
5:15 PM,51.8,15.8,24,30.23,10.0,North,8.1,-,N/A,,Clear,10,2013-04-03 21:15:00
5:35 PM,51.8,14.0,22,30.24,10.0,Variable,6.9,-,N/A,,Clear,0,2013-04-03 21:35:00
5:55 PM,51.8,15.8,24,30.23,10.0,NNE,5.8,-,N/A,,Clear,20,2013-04-03 21:55:00
6:15 PM,50.0,15.8,26,30.23,10.0,North,5.8,-,N/A,,Clear,360,2013-04-03 22:15:00
6:35 PM,50.0,14.0,24,30.23,10.0,North,5.8,-,N/A,,Clear,10,2013-04-03 22:35:00
6:55 PM,50.0,14.0,24,30.22,10.0,Variable,3.5,-,N/A,,Clear,0,2013-04-03 22:55:00
7:15 PM,48.2,14.0,25,30.23,10.0,Variable,3.5,-,N/A,,Clear,0,2013-04-03 23:15:00
7:35 PM,48.2,12.2,24,30.22,10.0,NE,3.5,-,N/A,,Clear,50,2013-04-03 23:35:00
7:55 PM,48.2,15.8,27,30.22,10.0,East,3.5,-,N/A,,Clear,80,2013-04-03 23:55:00
8:15 PM,46.4,17.6,32,30.22,10.0,Calm,Calm,-,N/A,,Clear,0,2013-04-04 00:15:00
8:35 PM,42.8,26.6,53,30.23,10.0,Calm,Calm,-,N/A,,Clear,0,2013-04-04 00:35:00
8:55 PM,41.0,28.4,61,30.23,10.0,Calm,Calm,-,N/A,,Clear,0,2013-04-04 00:55:00
9:15 PM,41.0,24.8,53,30.24,10.0,Calm,Calm,-,N/A,,Clear,0,2013-04-04 01:15:00
9:35 PM,41.0,24.8,53,30.24,10.0,Calm,Calm,-,N/A,,Clear,0,2013-04-04 01:35:00
9:55 PM,42.8,19.4,39,30.25,10.0,NE,4.6,-,N/A,,Clear,40,2013-04-04 01:55:00
10:15 PM,42.8,21.2,42,30.25,10.0,Calm,Calm,-,N/A,,Clear,0,2013-04-04 02:15:00
10:35 PM,41.0,24.8,53,30.25,10.0,Calm,Calm,-,N/A,,Clear,0,2013-04-04 02:35:00
10:55 PM,39.2,26.6,61,30.25,10.0,Calm,Calm,-,N/A,,Clear,0,2013-04-04 02:55:00
11:15 PM,37.4,26.6,65,30.24,10.0,Calm,Calm,-,N/A,,Clear,0,2013-04-04 03:15:00
11:35 PM,39.2,23.0,52,30.24,10.0,Calm,Calm,-,N/A,,Clear,0,2013-04-04 03:35:00
11:55 PM,37.4,24.8,60,30.23,10.0,Calm,Calm,-,N/A,,Clear,0,2013-04-04 03:55:00